Simultaneous Nadir Overpasses (SNOs) Predictions

Prediction of SNOs between GOES-15 and METOP-B Satellite Orbit:

Table of predicted SNOs for the next 14.0 days since TLE Epoch: 8/7/2021
Index Date Time (GOES-15) GOES-15 Lat,Lon METOP-B Lat,Lon Distance(km) Time Diff (sec)
1 08/07/2021 06:16:37 0.05,-128.06 -0.59,-131.04 338.75 80
2 08/08/2021 05:53:17 0.07,-128.08 0.51,-126.04 231.60 80
3 08/09/2021 18:14:49 -0.04,-128.04 0.50,-130.61 291.79 80
4 08/10/2021 17:51:30 -0.07,-128.06 -0.59,-125.61 279.01 80
5 08/12/2021 06:13:10 0.04,-128.16 -0.44,-130.20 233.50 80
6 08/13/2021 05:49:52 0.07,-128.17 0.72,-125.22 336.40 80
7 08/14/2021 18:11:23 -0.03,-128.12 0.34,-129.77 188.22 80
8 08/15/2021 17:48:05 -0.06,-128.13 -0.82,-124.78 381.85 80
9 08/17/2021 06:09:45 0.02,-128.22 -0.22,-129.37 131.43 80
10 08/18/2021 05:46:25 0.04,-128.22 0.88,-124.37 437.56 80
11 08/19/2021 18:07:57 -0.01,-128.15 0.17,-128.93 88.79 80
12 08/20/2021 17:44:38 -0.04,-128.16 -0.99,-123.94 480.51 80
